Location: Andrest
(43.3200°N, 0.0641°E)
Time: 15:04:58
(UTC+00:00)

ERS-2 - Pass Details

Date: 01 December 2020
Orbit: 492 x 498 km, 98.6° (Epoch: 24 January)

Event Time Altitude Azimuth Distance (km) Brightness Sun altitude
Exits shadow 18:11:02 15° 5° (N) 1,420 4.2 -18.7°
Maximum altitude 18:13:58 62° 287° (WNW) 567 2.5 -19.2°
Drops below altitude 10° 18:17:34 10° 206° (SSW) 1,696 5.3 -19.9°
Sets 18:19:39 0° 203° (SSW) 2,574 6.2 -20.3°
